SCP
0 0 0 0 0 0 0 0 0 0 0 0 0 0 0 0 0 0 0 0 0 0 0 0 0 0 0 0 0 0 0 0 0 0 0 0 0 0 0 0 0 0 0
0 0 0 0 0 0 0 0 0 0 0 0 0 0 0 0 0 0 0 0 0 0 0 0 0 0 0 0 0 0 0 0 0 0 0 0 0 0 0 0 0 0 0
0 0 0 0 0 0 0 0 0 0 0 0 0 0 0 0 0 0 0 0 0 0 0 0 0 0 0 0 0 0 0 0 0 0 0 0 0 0 0 0 0 0 0
0 0 0 0 0 0 0 0 0 0 0 0 0 0 0 0 0 0 0 0 0 0 0 0 0 0 0 0 0 0 0 0 0 0 0 0 0 0 0 0 0 0 0
0 0 0 0 0 0 0 0 0 0 0 0 0 0 0 0 0 0 0 0 0 0 0 0 0 0 0 0 0 0 0 0 0 0 0 0 0 0 0 0 0 0 0
0 0 0 0 0 0 0 0 0 0 0 0 0 0 0 0 0 0 0 0 0 0 0 0 0 0 0 0 0 0 0 0 0 0 0 0 0 0 0 0 0 0 0
0 0 0 0 0 0 0 0 0 0 0 0 0 0 0 0 0 0 0 0 0 0 0 0 0 0 0 0 0 0 0 0 0 0 0 0 0 0 0 0 0 0 0
0 0 0 0 0 0 0 0 0 0 0 0 0 0 0 0 0 0 0 0 0 0 0 0 0 0 0 0 0 0 0 0 0 0 0 0 0 0 0 0 0 0 0
0 0 0 0 0 0 0 0 0 0 0 0 0 0 0 0 0 0 0 0 0 0 0 0 0 0 0 0 0 0 0 0 0 0 0 0 0 0 0 0 0 0 0
0 0 0 0 0 0 0 0 0 0 0 0 0 0 0 0 0 0 0 0 0 0 0 0 0 0 0 0 0 0 0 0 0 0 0 0 0 0 0 0 0 0 0
1 0 0 0 0 0 0 0 0 0 0 0 0 0 0 0 0 0 0 0 0 0 0 0 0 0 0 0 0 0 0 0 0 0 0 0 0 0 0 0 0 0 0
1 1 1 1 0 0 0 0 0 0 0 0 0 0 0 0 0 0 0 0 0 0 0 0 0 0 0 0 0 0 0 0 0 0 0 0 0 0 0 0 0 0 0
1 1 1 1 1 1 1 1 0 0 0 0 0 0 0 0 0 0 0 0 0 0 0 0 0 0 0 0 0 0 0 0 0 0 0 0 0 0 0 0 0 0 0
1 1 1 1 1 1 1 1 1 1 0 0 0 0 0 0 0 0 0 0 0 0 0 0 0 0 0 0 0 0 0 0 0 0 0 0 0 0 0 0 0 0 0
1 1 1 1 1 1 1 1 1 1 1 1 0 0 0 0 0 0 0 0 0 0 0 0 0 0 0 0 0 0 0 0 0 0 0 0 0 0 0 0 0 0 0
1 1 1 1 1 1 1 1 1 1 1 1 0 0 0 0 0 0 0 0 0 0 0 0 0 0 0 0 0 0 0 0 0 0 0 0 0 0 0 0 0 0 0
1 1 1 1 1 1 1 1 1 1 1 1 1 0 0 0 0 0 0 0 0 0 0 0 0 0 0 0 0 0 0 0 0 0 0 0 0 0 0 0 0 0 0
1 1 1 1 1 1 1 1 1 1 1 1 1 0 0 0 0 0 0 0 0 0 0 0 0 0 0 0 0 0 0 0 0 0 0 0 0 0 0 0 0 0 0
1 1 1 1 1 1 1 1 1 1 1 1 1 1 0 0 0 0 0 0 0 0 0 0 0 0 0 0 0 0 0 0 0 0 0 0 0 0 0 0 0 0 0
1 1 1 1 1 1 1 1 1 1 1 1 1 1 0 0 0 0 0 0 0 0 0 0 0 0 0 0 0 0 0 0 0 0 0 0 0 0 0 0 0 0 0
1 1 1 1 1 1 1 1 1 1 1 1 1 0 0 0 0 0 0 0 0 0 0 0 0 0 0 0 0 0 0 0 0 0 0 0 0 0 0 0 0 0 0
1 1 1 1 1 1 1 1 1 1 1 1 1 1 0 0 0 0 0 0 0 0 0 0 0 0 0 0 0 0 0 0 0 0 0 0 0 0 0 0 0 0 0
1 1 1 1 1 1 1 1 1 1 1 1 1 1 0 0 0 0 0 0 0 0 0 0 0 0 0 0 0 0 0 0 0 0 0 0 0 0 0 0 0 0 0
1 1 1 1 1 1 1 1 1 1 1 1 1 1 0 0 0 0 0 0 0 0 0 0 0 0 0 0 0 0 0 0 0 0 0 0 0 0 0 0 0 0 0
1 1 1 1 1 1 1 1 1 1 1 1 1 1 0 0 0 0 0 0 0 0 0 0 0 0 0 0 0 0 0 0 0 0 0 0 0 0 0 0 0 0 0
1 1 0 1 1 1 1 1 1 1 1 1 1 0 0 0 0 0 0 0 0 0 0 0 0 0 0 0 0 0 0 0 0 0 0 0 0 0 0 0 0 0 0
Wind_Speed
14 18 18 16 16 16 16 15 15 15 15 14 14 14 13 12 12 12 11 11 11 11 12 12 12 12 12 13 13 13 14 13 14 14 15 15 15 14 13 13 13 15 15
18 20 19 16 16 16 16 15 15 15 15 14 14 13 13 12 12 11 11 11 11 12 12 12 12 12 12 12 12 13 13 13 13 14 15 15 14 13 11 10 12 13 14
20 20 20 17 17 16 16 15 15 15 15 14 14 13 12 12 12 11 11 11 11 12 12 12 12 12 12 12 12 12 13 12 12 11 11 12 13 12 12 14 15 15 14
20 20 19 19 17 17 16 15 15 15 15 14 13 13 12 12 11 11 11 11 11 12 12 12 12 12 12 12 12 12 12 12 9 7 7 10 12 13 13 13 13 13 13
19 19 20 20 18 17 16 15 15 15 15 14 13 13 12 12 11 11 11 11 11 12 12 12 12 12 11 11 11 11 11 10 6 4 9 9 11 12 12 12 12 12 12
19 18 21 19 18 17 17 16 15 15 14 14 13 12 12 12 12 11 11 11 11 12 12 11 11 11 10 10 10 11 10 7 7 8 8 9 11 11 11 12 12 12 12
19 18 21 19 19 18 17 16 16 15 14 14 13 12 12 12 11 12 12 11 11 11 11 10 10 10 9 9 10 10 8 4 4 8 7 9 11 10 11 11 11 11 11
18 18 20 19 18 18 17 16 15 15 14 13 12 12 12 12 11 12 12 11 11 11 10 10 10 9 8 8 9 8 6 4 7 7 8 10 10 9 10 10 10 10 10
17 17 18 18 17 17 16 16 15 15 14 13 12 12 12 12 12 12 11 11 11 10 10 10 9 8 8 8 8 8 5 3 2 6 8 9 9 9 9 9 9 10 10
15 15 16 16 16 15 15 15 15 14 14 13 12 12 12 12 12 11 11 10 10 9 9 9 8 8 7 7 8 8 6 5 4 6 6 10 9 8 9 8 9 9 9
14 14 15 15 15 14 14 15 15 14 13 13 12 12 11 10 11 10 11 11 9 9 9 8 7 6 6 8 7 7 7 3 5 4 6 11 8 8 8 8 8 8 8
17 16 14 15 15 14 11 12 10 11 11 10 9 10 7 6 6 8 11 10 9 9 9 8 6 5 6 6 9 8 3 4 5 4 8 10 8 7 7 7 7 7 7
17 16 15 14 14 13 9 9 7 6 8 8 9 9 6 6 6 6 6 8 7 8 6 7 6 3 2 2 2 2 3 3 2 4 9 8 7 7 7 6 6 6 7
17 17 16 15 13 12 10 8 8 7 7 7 8 9 7 5 5 5 4 5 4 3 3 3 2 3 2 2 2 2 2 1 2 3 7 8 6 7 7 7 6 6 6
17 17 16 15 14 12 9 8 8 7 8 8 7 7 7 6 5 5 4 3 3 3 4 3 3 3 2 2 1 3 2 2 2 3 6 8 6 6 7 7 7 6 6
17 17 16 15 15 13 10 8 7 7 7 7 7 8 8 5 5 5 5 4 4 3 2 2 3 3 2 2 2 3 2 2 3 2 4 8 8 6 6 7 7 7 7
16 16 16 15 15 14 12 10 8 7 8 7 7 8 8 6 6 5 4 4 4 4 4 3 3 3 3 3 3 3 2 1 2 2 2 3 7 8 7 6 6 6 6
15 15 15 14 14 14 11 10 7 7 8 6 7 7 8 7 7 5 4 4 4 4 4 3 3 3 2 2 2 2 2 2 3 3 3 3 2 5 8 7 6 6 6
14 14 15 14 15 13 12 9 8 7 7 6 6 7 8 8 7 6 4 4 5 4 3 3 3 3 3 2 3 3 2 2 3 3 2 3 3 3 4 8 7 5 5
13 14 14 14 14 13 10 8 7 8 7 6 6 6 8 8 8 6 5 5 5 4 4 3 3 2 2 2 2 2 2 2 2 2 3 4 4 4 4 4 6 7 6
13 14 15 14 14 11 9 9 9 8 7 6 6 8 8 8 8 6 5 6 5 4 4 5 4 5 4 3 3 4 3 3 2 2 3 3 4 3 3 3 2 2 5
13 14 14 15 14 13 10 8 7 8 7 7 6 7 8 8 8 8 6 6 5 4 5 5 4 3 3 3 3 3 4 5 5 3 3 4 3 4 4 4 2 2 2
13 14 13 14 14 14 12 9 7 7 6 7 8 7 8 8 8 7 7 6 5 6 5 6 5 6 4 4 3 3 3 2 5 5 3 3 3 3 3 3 3 3 3
13 13 13 14 13 14 13 12 13 10 9 9 7 7 8 8 8 8 7 7 6 5 5 7 6 5 5 4 4 3 3 3 3 4 6 5 4 4 3 3 3 4 4
12 13 13 14 13 13 13 13 12 10 8 7 7 8 8 8 8 8 8 7 7 5 5 4 4 5 5 5 4 4 4 3 5 4 3 4 5 4 4 4 3 3 3
12 12 13 14 13 13 13 13 12 12 10 10 10 9 8 7 7 9 8 7 7 5 6 6 5 6 4 3 4 4 4 4 5 5 4 5 4 4 3 3 4 3 4
Wind_Direction
153 144 146 150 146 143 141 138 136 134 134 132 131 128 125 121 117 114 111 108 105 102 101 99 100 99 100 100 101 103 104 104 105 106 105 103 103 106 110 118 120 105 107
148 143 147 149 147 145 142 139 137 136 135 134 131 129 126 123 120 117 114 110 106 103 100 100 101 100 100 100 101 104 106 106 108 111 113 108 102 102 100 90 82 101 110
147 143 151 150 148 146 143 140 139 138 137 135 132 129 127 124 121 118 117 112 108 105 103 103 102 100 101 101 102 105 106 106 111 124 140 118 108 103 99 95 99 108 108
147 148 153 148 149 147 144 142 140 139 137 135 133 131 128 125 122 120 117 114 110 108 106 104 103 101 100 102 103 105 106 108 118 165 130 106 110 105 105 105 108 110 110
149 150 145 151 151 148 146 144 143 141 139 137 135 133 130 126 122 120 116 114 112 110 108 105 104 103 104 105 106 107 110 114 148 160 93 99 103 108 110 111 111 111 111
152 151 145 155 152 150 148 147 145 143 141 139 137 134 129 126 123 119 116 114 112 109 108 107 105 105 106 109 110 111 116 140 189 103 107 109 106 112 113 113 112 110 109
155 151 148 157 155 153 151 149 147 145 143 140 138 135 130 127 124 121 118 114 111 109 108 107 106 105 105 110 112 114 122 182 122 104 107 99 100 114 115 114 114 113 112
155 152 147 157 157 156 154 152 150 147 144 142 140 137 131 128 124 122 119 116 113 111 108 106 104 105 107 109 114 119 136 219 127 115 108 102 106 117 117 117 117 115 113
157 152 153 159 160 158 156 154 152 149 147 144 142 138 132 129 126 124 121 118 116 113 110 106 102 102 107 113 119 124 128 289 128 116 114 106 118 124 122 121 121 119 118
160 159 161 162 161 163 161 158 156 153 150 146 143 139 135 132 131 130 133 122 119 116 113 107 103 101 105 115 122 130 150 217 130 125 112 112 128 131 129 127 125 125 124
167 166 166 162 165 168 163 156 160 157 153 152 150 146 156 155 144 150 118 124 124 118 112 107 105 109 126 130 128 149 188 166 118 108 99 111 137 139 137 136 135 134 133
173 173 172 166 168 170 164 156 166 165 159 169 155 159 164 138 136 126 120 128 125 121 119 110 119 166 207 151 146 186 179 135 133 125 107 126 145 146 143 145 145 145 143
176 176 174 171 172 169 164 163 168 163 161 166 158 160 149 148 146 141 144 143 143 153 147 140 177 169 131 82 132 144 98 131 125 120 117 140 153 156 156 156 156 157 156
180 180 176 174 174 174 170 166 168 165 165 165 159 168 158 157 155 144 149 143 148 141 131 152 141 116 96 118 114 99 127 153 124 105 119 145 160 165 165 166 168 170 170
183 182 179 177 175 173 170 174 173 168 168 162 160 167 166 161 161 148 144 147 148 139 158 165 143 132 143 147 132 116 105 92 117 140 124 149 166 173 176 176 178 183 183
185 182 178 181 177 175 174 176 171 169 166 165 166 165 174 167 159 157 159 163 152 155 139 161 142 159 163 139 148 125 146 130 132 170 143 151 166 175 180 181 185 192 195
187 182 180 181 180 178 176 178 174 170 170 172 164 165 175 174 162 168 164 171 153 146 150 173 155 172 170 163 153 148 152 145 137 157 164 157 160 170 179 184 191 199 205
187 182 181 181 179 177 176 178 177 175 171 173 167 168 176 174 169 177 173 165 155 170 174 164 191 183 165 177 160 165 159 156 167 180 180 178 179 163 168 175 189 201 208
186 180 180 183 177 175 173 176 179 172 173 176 173 172 172 176 175 183 175 146 172 182 185 193 165 198 173 177 174 171 183 170 170 190 185 181 174 189 164 156 176 194 206
183 179 179 181 177 173 171 172 178 175 176 181 180 177 174 177 179 184 171 165 189 186 187 179 155 177 184 191 197 149 186 167 195 170 206 186 178 189 189 172 180 178 185
182 180 179 180 176 173 174 176 178 179 177 179 184 178 181 182 179 188 182 169 198 193 190 183 180 170 185 183 191 178 174 182 179 188 208 206 178 180 175 188 218 200 170
184 185 183 181 177 178 178 178 184 178 179 179 184 175 182 185 184 188 190 189 193 186 187 189 200 204 179 194 222 203 189 177 186 183 188 197 193 187 187 181 164 199 266
188 188 187 183 179 181 179 174 171 165 172 178 181 177 182 185 190 192 189 199 189 198 186 194 196 210 200 192 235 257 244 208 158 162 186 187 195 207 207 172 186 179 209
190 186 185 183 183 181 180 180 177 181 184 184 180 174 176 184 188 188 192 194 198 202 182 201 193 208 217 207 191 250 298 342 268 171 179 178 185 209 222 225 195 187 205
186 183 182 181 181 181 183 184 185 189 186 175 172 168 177 180 189 189 190 189 193 199 189 205 185 220 219 231 214 205 209 216 253 260 199 179 192 198 202 214 221 219 205
181 180 177 176 179 180 184 185 189 186 180 175 174 171 179 179 187 190 190 188 193 190 184 196 200 205 230 234 246 232 225 223 224 234 227 216 211 191 197 221 230 224 221